| time (UTC) | temp C | wind direction | speed KPH | gust KPH | rain 1hr cm | rain 24hr cm | rain mn cm | humidity % | barometer mb |
| 20260904094003 | 18 | 275 | 6.4 | 24.1 | 0.00 | 0.20 | 0.20 | 89 | 1011.3 |
| 20260904093004 | 18 | 272 | 6.4 | 20.9 | 0.00 | 0.20 | 0.20 | 93 | 1011.1 |
| 20260904092004 | 18 | 274 | 4.8 | 19.3 | 0.00 | 0.20 | 0.20 | 93 | 1011.2 |
| 20260904091004 | 18 | 287 | 6.4 | 20.9 | 0.00 | 0.20 | 0.20 | 95 | 1011.2 |
| 20260904090006 | 17 | 284 | 4.8 | 17.7 | 0.00 | 0.20 | 0.20 | 95 | 1011.2 |
| 20260904085004 | 17 | 274 | 4.8 | 17.7 | 0.00 | 0.20 | 0.20 | 95 | 1010.9 |
| 20260904084004 | 17 | 270 | 4.8 | 14.5 | 0.03 | 0.20 | 0.20 | 95 | 1010.7 |
| 20260904083004 | 17 | 295 | 4.8 | 16.1 | 0.13 | 0.20 | 0.20 | 95 | 1010.5 |
| 20260904082004 | 17 | 323 | 8.0 | 17.7 | 0.18 | 0.20 | 0.20 | 95 | 1010.6 |
| 20260904081004 | 16 | 320 | 8.0 | 20.9 | 0.20 | 0.20 | 0.20 | 95 | 1010.4 |
| 20260904080003 | 16 | 310 | 8.0 | 22.5 | 0.20 | 0.20 | 0.20 | 94 | 1010.4 |
| 20260904074003 | 17 | 322 | 11.3 | 38.6 | 0.18 | 0.18 | 0.18 | 93 | 1010.4 |
| 20260904073003 | 18 | 270 | 11.3 | 24.1 | 0.05 | 0.05 | 0.05 | 95 | 1010.3 |
| 20260904070004 | 18 | 246 | 8.0 | 27.4 | 0.00 | 0.00 | 0.00 | 93 | 1009.0 |
| 20260904065004 | 19 | 253 | 9.7 | 27.4 | 0.00 | 0.00 | 0.00 | 92 | 1009.0 |
| 20260904064003 | 19 | 252 | 11.3 | 27.4 | 0.00 | 0.00 | 0.00 | 90 | 1009.0 |
| 20260904063004 | 20 | 250 | 11.3 | 38.6 | 0.00 | 0.00 | 0.00 | 89 | 1008.9 |
| 20260904061005 | 20 | 247 | 11.3 | 27.4 | 0.00 | 0.00 | 0.00 | 88 | 1008.9 |
| 20260904060003 | 20 | 249 | 9.7 | 32.2 | 0.00 | 0.00 | 0.00 | 88 | 1008.9 |
| 20260904055004 | 20 | 237 | 8.0 | 30.6 | 0.00 | 0.00 | 0.00 | 88 | 1008.9 |
| 20260904051003 | 20 | 244 | 9.7 | 33.8 | 0.00 | 0.00 | 0.00 | 89 | 1009.3 |
| 20260904050004 | 20 | 249 | 9.7 | 24.1 | 0.00 | 0.00 | 0.00 | 90 | 1009.3 |
| 20260904045003 | 20 | 249 | 8.0 | 33.8 | 0.00 | 0.00 | 0.00 | 90 | 1009.2 |
| 20260904044004 | 19 | 240 | 9.7 | 24.1 | 0.00 | 0.00 | 0.00 | 90 | 1009.5 |
| 20260904043003 | 19 | 244 | 9.7 | 29.0 | 0.00 | 0.00 | 0.00 | 91 | 1009.7 |
| 20260904042003 | 19 | 245 | 12.9 | 32.2 | 0.00 | 0.00 | 0.00 | 90 | 1009.7 |
| 20260904041005 | 19 | 254 | 12.9 | 33.8 | 0.00 | 0.00 | 0.00 | 90 | 1009.9 |
| 20260904040004 | 19 | 257 | 11.3 | 27.4 | 0.00 | 0.00 | 0.00 | 90 | 1010.0 |
| 20260904034003 | 20 | 250 | 8.0 | 32.2 | 0.00 | 0.00 | 0.00 | 89 | 1010.1 |
| 20260904033004 | 20 | 239 | 9.7 | 24.1 | 0.00 | 0.00 | 0.00 | 88 | 1010.1 |
| 20260904030005 | 20 | 241 | 11.3 | 29.0 | 0.00 | 0.00 | 0.00 | 87 | 1010.5 |
| 20260904025004 | 20 | 245 | 11.3 | 27.4 | 0.00 | 0.00 | 0.00 | 87 | 1010.6 |
| 20260904024004 | 20 | 245 | 9.7 | 25.7 | 0.00 | 0.00 | 0.00 | 87 | 1010.7 |
| 20260904023004 | 20 | 250 | 9.7 | 24.1 | 0.00 | 0.00 | 0.00 | 87 | 1010.9 |
| 20260904022003 | 20 | 242 | 9.7 | 27.4 | 0.00 | 0.00 | 0.00 | 86 | 1010.9 |
| 20260904021004 | 20 | 241 | 8.0 | 30.6 | 0.00 | 0.00 | 0.00 | 86 | 1010.9 |
| 20260904020004 | 20 | 258 | 6.4 | 27.4 | 0.00 | 0.00 | 0.00 | 86 | 1011.2 |
| 20260904015004 | 20 | 239 | 6.4 | 22.5 | 0.00 | 0.00 | 0.00 | 86 | 1011.2 |
| 20260904014004 | 20 | 245 | 8.0 | 24.1 | 0.00 | 0.00 | 0.00 | 86 | 1011.4 |
| 20260904012004 | 19 | 231 | 6.4 | 25.7 | 0.00 | 0.00 | 0.00 | 86 | 1011.5 |
| 20260904011004 | 19 | 255 | 6.4 | 22.5 | 0.00 | 0.00 | 0.00 | 87 | 1011.7 |
| 20260904010004 | 19 | 229 | 6.4 | 17.7 | 0.00 | 0.00 | 0.00 | 86 | 1011.8 |
| 20260904004004 | 19 | 243 | 8.0 | 29.0 | 0.00 | 0.00 | 0.00 | 87 | 1012.1 |
| 20260904003004 | 19 | 241 | 8.0 | 19.3 | 0.00 | 0.00 | 0.00 | 87 | 1012.3 |
| 20260904002003 | 19 | 245 | 6.4 | 25.7 | 0.00 | 0.00 | 0.00 | 88 | 1012.5 |
| 20260904001004 | 19 | 248 | 8.0 | 16.1 | 0.00 | 0.00 | 0.00 | 88 | 1012.7 |
| 20260904000004 | 19 | 247 | 6.4 | 32.2 | 0.00 | 0.00 | 0.00 | 88 | 1012.9 |
| 20260903235004 | 19 | 234 | 6.4 | 14.5 | 0.00 | 0.00 | 0.00 | 88 | 1013.1 |
| 20260903234003 | 19 | 239 | 6.4 | 17.7 | 0.00 | 0.00 | 0.00 | 88 | 1013.2 |
| 20260903233003 | 19 | 238 | 8.0 | 17.7 | 0.00 | 0.00 | 0.00 | 88 | 1013.3 |
| 20260903232005 | 19 | 237 | 4.8 | 22.5 | 0.00 | 0.00 | 0.00 | 88 | 1013.3 |
| 20260903231004 | 19 | 257 | 4.8 | 14.5 | 0.00 | 0.00 | 0.00 | 88 | 1013.4 |
| 20260903225005 | 19 | 262 | 6.4 | 20.9 | 0.00 | 0.00 | 0.00 | 87 | 1013.8 |
| 20260903224004 | 20 | 262 | 9.7 | 19.3 | 0.00 | 0.00 | 0.00 | 86 | 1013.7 |
| 20260903222004 | 20 | 255 | 8.0 | 19.3 | 0.00 | 0.00 | 0.00 | 85 | 1013.9 |
| 20260903221004 | 20 | 236 | 8.0 | 20.9 | 0.00 | 0.00 | 0.00 | 86 | 1013.9 |
| 20260903215004 | 20 | 265 | 8.0 | 22.5 | 0.00 | 0.00 | 0.00 | 87 | 1014.2 |
| 20260903214004 | 20 | 269 | 9.7 | 20.9 | 0.00 | 0.00 | 0.00 | 87 | 1014.4 |
| 20260903213003 | 21 | 261 | 9.7 | 24.1 | 0.00 | 0.00 | 0.00 | 86 | 1014.4 |
| 20260903211004 | 21 | 262 | 6.4 | 22.5 | 0.00 | 0.00 | 0.00 | 84 | 1014.4 |
| 20260903210004 | 21 | 268 | 8.0 | 17.7 | 0.00 | 0.00 | 0.00 | 83 | 1014.3 |
| 20260903203004 | 21 | 247 | 6.4 | 17.7 | 0.00 | 0.00 | 0.00 | 82 | 1014.4 |
| 20260903202004 | 22 | 258 | 4.8 | 25.7 | 0.00 | 0.00 | 0.00 | 81 | 1014.4 |
| 20260903201003 | 22 | 244 | 6.4 | 16.1 | 0.00 | 0.00 | 0.00 | 80 | 1014.4 |
| 20260903200003 | 22 | 243 | 3.2 | 19.3 | 0.00 | 0.00 | 0.00 | 77 | 1014.4 |
| 20260903195003 | 22 | 251 | 1.6 | 6.4 | 0.00 | 0.00 | 0.00 | 74 | 1014.4 |
| 20260903194003 | 22 | 262 | 4.8 | 12.9 | 0.00 | 0.00 | 0.00 | 74 | 1014.4 |
| 20260903192004 | 22 | 262 | 6.4 | 16.1 | 0.00 | 0.00 | 0.00 | 73 | 1014.6 |
| 20260903191004 | 22 | 280 | 4.8 | 16.1 | 0.00 | 0.00 | 0.00 | 72 | 1014.8 |
| 20260903184003 | 23 | 274 | 8.0 | 20.9 | 0.00 | 0.00 | 0.00 | 70 | 1014.7 |
| 20260903182003 | 23 | 265 | 6.4 | 20.9 | 0.00 | 0.00 | 0.00 | 67 | 1014.5 |
| 20260903181004 | 23 | 267 | 6.4 | 32.2 | 0.00 | 0.00 | 0.00 | 66 | 1014.7 |
| 20260903180005 | 23 | 265 | 9.7 | 22.5 | 0.00 | 0.00 | 0.00 | 66 | 1014.7 |
| 20260903174003 | 24 | 269 | 8.0 | 24.1 | 0.00 | 0.00 | 0.00 | 62 | 1014.7 |
| 20260903173003 | 25 | 272 | 12.9 | 25.7 | 0.00 | 0.00 | 0.00 | 61 | 1014.8 |
| 20260903172003 | 25 | 259 | 9.7 | 29.0 | 0.00 | 0.00 | 0.00 | 61 | 1014.8 |
| 20260903171004 | 25 | 265 | 9.7 | 25.7 | 0.00 | 0.00 | 0.00 | 70 | 1014.4 |
| 20260903170005 | 25 | 263 | 8.0 | 20.9 | 0.00 | 0.00 | 0.00 | 71 | 1014.4 |
| 20260903165004 | 25 | 250 | 8.0 | 20.9 | 0.00 | 0.00 | 0.00 | 70 | 1014.6 |
| 20260903164004 | 25 | 259 | 9.7 | 20.9 | 0.00 | 0.00 | 0.00 | 69 | 1014.5 |
| 20260903163004 | 25 | 257 | 8.0 | 29.0 | 0.00 | 0.00 | 0.00 | 69 | 1014.6 |
| 20260903162003 | 25 | 255 | 11.3 | 22.5 | 0.00 | 0.00 | 0.00 | 67 | 1014.7 |
| 20260903161004 | 25 | 257 | 11.3 | 29.0 | 0.00 | 0.00 | 0.00 | 65 | 1014.6 |
| 20260903160005 | 26 | 259 | 9.7 | 19.3 | 0.00 | 0.00 | 0.00 | 65 | 1014.5 |
| 20260903155004 | 25 | 266 | 9.7 | 22.5 | 0.00 | 0.00 | 0.00 | 66 | 1014.7 |
| 20260903153004 | 26 | 265 | 6.4 | 20.9 | 0.00 | 0.00 | 0.00 | 65 | 1015.0 |
| 20260903152004 | 26 | 272 | 8.0 | 27.4 | 0.00 | 0.00 | 0.00 | 65 | 1015.0 |
| 20260903151003 | 25 | 255 | 11.3 | 24.1 | 0.00 | 0.00 | 0.00 | 65 | 1015.0 |
| 20260903145003 | 25 | 253 | 11.3 | 29.0 | 0.00 | 0.03 | 0.00 | 64 | 1015.1 |
| 20260903144005 | 26 | 266 | 9.7 | 24.1 | 0.00 | 0.03 | 0.00 | 63 | 1015.3 |
| 20260903143004 | 26 | 256 | 9.7 | 24.1 | 0.00 | 0.03 | 0.00 | 63 | 1015.4 |
| 20260903142003 | 25 | 264 | 11.3 | 33.8 | 0.00 | 0.03 | 0.00 | 65 | 1015.5 |
| 20260903141004 | 25 | 250 | 9.7 | 22.5 | 0.00 | 0.03 | 0.00 | 64 | 1015.6 |
| 20260903140004 | 26 | 255 | 9.7 | 24.1 | 0.00 | 0.03 | 0.00 | 64 | 1015.8 |
| 20260903135004 | 25 | 272 | 8.0 | 27.4 | 0.00 | 0.03 | 0.00 | 65 | 1015.6 |
| 20260903134004 | 25 | 270 | 9.7 | 17.7 | 0.00 | 0.03 | 0.00 | 66 | 1015.8 |
| 20260903133003 | 25 | 264 | 9.7 | 25.7 | 0.00 | 0.03 | 0.00 | 66 | 1015.9 |
| 20260903132005 | 25 | 268 | 9.7 | 33.8 | 0.00 | 0.03 | 0.00 | 67 | 1016.0 |
| 20260903131004 | 25 | 265 | 11.3 | 27.4 | 0.00 | 0.03 | 0.00 | 69 | 1016.1 |
| 20260903130004 | 24 | 270 | 9.7 | 29.0 | 0.00 | 0.03 | 0.00 | 70 | 1016.1 |
| 20260903125004 | 23 | 279 | 11.3 | 30.6 | 0.00 | 0.03 | 0.00 | 71 | 1016.3 |
| 20260903124004 | 23 | 264 | 11.3 | 30.6 | 0.00 | 0.03 | 0.00 | 71 | 1016.4 |
| 20260903122004 | 23 | 263 | 6.4 | 24.1 | 0.00 | 0.03 | 0.00 | 74 | 1016.5 |
| 20260903120004 | 23 | 271 | 8.0 | 20.9 | 0.00 | 0.03 | 0.00 | 73 | 1016.6 |
| 20260903115003 | 23 | 274 | 8.0 | 22.5 | 0.00 | 0.03 | 0.00 | 72 | 1016.6 |
| 20260903114003 | 23 | 261 | 8.0 | 24.1 | 0.00 | 0.03 | 0.00 | 73 | 1016.5 |
| 20260903113003 | 22 | 269 | 6.4 | 17.7 | 0.00 | 0.03 | 0.00 | 73 | 1016.5 |
| 20260903112004 | 22 | 265 | 8.0 | 22.5 | 0.00 | 0.03 | 0.00 | 74 | 1016.5 |
| 20260903111005 | 22 | 272 | 8.0 | 20.9 | 0.00 | 0.03 | 0.00 | 73 | 1016.5 |
| 20260903110005 | 22 | 279 | 8.0 | 22.5 | 0.00 | 0.03 | 0.00 | 73 | 1016.5 |
| 20260903105004 | 22 | 264 | 8.0 | 19.3 | 0.00 | 0.03 | 0.00 | 74 | 1016.5 |
| 20260903104005 | 22 | 260 | 8.0 | 25.7 | 0.00 | 0.03 | 0.00 | 75 | 1016.7 |
| 20260903103003 | 22 | 262 | 9.7 | 30.6 | 0.00 | 0.03 | 0.00 | 74 | 1016.6 |
| 20260903102004 | 22 | 263 | 11.3 | 25.7 | 0.00 | 0.03 | 0.00 | 76 | 1016.7 |
| 20260903101003 | 21 | 259 | 9.7 | 25.7 | 0.00 | 0.03 | 0.00 | 76 | 1016.7 |
| 20260903100004 | 21 | 261 | 11.3 | 27.4 | 0.00 | 0.03 | 0.00 | 76 | 1016.7 |